Regional Weather Roundup
Issued by NWS Green Bay, WI

Home | Current Version | Previous Version | Graphics & Text | Print | Product List | Glossary On
Versions: 1 2 3 4 5 6 7 8 9 10 11 12 13 14 15 16 17 18 19 20 21 22 23 24 25 26 27 28 29 30 31 32 33 34 35 36 37 38 39 40 41 42 43 44 45 46 47 48 49 50
000
ASUS43 KGRB 261711
RWRGRB

NORTH-CENTRAL AND NORTHEAST WISCONSIN REGIONAL WEATHER ROUNDUP
NATIONAL WEATHER SERVICE GREEN BAY WI
1200 PM CDT SUN MAR 26 2017

WIZ005-009-010>012-018-019-261800-
NORTH CENTRAL WISCONSIN

CITY           SKY/WX    TMP DP  RH WIND       PRES   REMARKS
IRONWOOD       CLOUDY    36  34  92 CALM      29.94F
MANITOWISH WTR CLOUDY    35  35 100 CALM      29.92F FOG
ARBOR VITAE    CLOUDY    37  35  94 CALM      29.91F
EAGLE RIVER    CLOUDY    34  34 100 E3        29.91F
LAND O LAKES   CLOUDY    35  34  96 CALM      29.93F FOG
RHINELANDER    CLOUDY    36  35  96 E7        29.92F
PHILLIPS       CLOUDY    36  36 100 CALM      29.91F
ANTIGO         CLOUDY    34  34 100 NE6       29.90F
TOMAHAWK       DRIZZLE   35  34  94 E5        29.92F
MERRILL        CLOUDY    36  36  99 E6        29.92F
$$

WIZ013-073-261800-
NORTHEAST WISCONSIN

CITY           SKY/WX    TMP DP  RH WIND       PRES   REMARKS
IRON MOUNTAIN  CLOUDY    33  30  88 E5        29.94F
MARINETTE        N/A    N/A N/A N/A MISG        N/A
OCONTO         CLOUDY    37  36  96 NE7       29.92F
$$

WIZ017-030-035>037-045-261800-
CENTRAL WISCONSIN

CITY           SKY/WX    TMP DP  RH WIND       PRES   REMARKS
MEDFORD        DRIZZLE   36  35  95 E7        29.89F
WAUSAU         CLOUDY    36  34  92 E9        29.89F
MOSINEE        CLOUDY    36  36 100 E9        29.91F FOG
MARSHFIELD     CLOUDY    36  34  92 E10       29.88F
WISC RAPIDS    CLOUDY    36  36 100 E10       29.90F FOG
STEVENS POINT  CLOUDY    34  34 100 NE7       29.89F FOG
WAUPACA        CLOUDY    39  38  96 NE6       29.90F FOG
SHAWANO        LGT RAIN  37  35  92 NE6       29.92F
CLINTONVILLE   LGT RAIN  36  36 100 NE7       29.91F
WAUTOMA        LGT RAIN  37  37 100 NE6       29.89F FOG
$$

WIZ038-039-048-051-261800-
FOX VALLEY

CITY           SKY/WX    TMP DP  RH WIND       PRES   REMARKS
NWS GREEN BAY  LGT RAIN  38  38 100 NE13      29.90F
APPLETON       LGT RAIN  37  37 100 NE8       29.87F
OSHKOSH        LGT RAIN  38  37  97 NE10      29.87F FOG
FOND DU LAC    LGT RAIN  41  38  89 NE8       29.86F
$$

WIZ022-050-052-261800-
EAST CENTRAL WISCONSIN

CITY           SKY/WX    TMP DP  RH WIND       PRES   REMARKS
EPHRAIM        LGT RAIN  35  35 100 E6        29.92F
WASHINGTON ISL LGT RAIN  35  35  99 NE8       29.94F
STURGEON BAY   LGT RAIN  37  37 100 E8        29.92F FOG
MANITOWOC      LGT RAIN  40  39  97 E7        29.90F FOG
SHEBOYGAN      LGT RAIN  40  38  93 NE9       29.87F FOG
$$

LMZ563-521-522-541>543-261800-
LAKESHORE

STATION/POSITION TIME  TEMP    WIND        PRES    VSBY  WAVE
                       AIR SEA DIR/SP/G                  HT/PER
                 (UTC) (F)     (DEG/KT/KT) (MB)    (MI)  (FT/S)
SHEBOYGAN LKSHOR 1700   37      20/  9/ 10 1012.0F
KEWAUNEE LKSHORE 1648   37      30/  7/ 12 1012.3F
NORTHPORT PIER   1640   34      70/ 10/ 12 1014.2F
CHAMBERS ISLAND  1640   34      10/  6/  8 1013.5F
MENOMINEE LKSHOR 1648   33     360/ 12/ 13 1012.8F
$$



USA.gov is the U.S. government's official web portal to all federal, state and local government web resources and services.